Flag for Guinea Weather past 2 weeks in Nzérékoré, Guinea

Now
81 °F

Scattered clouds.


Feels Like: 87 °F
Forecast: N/A
Wind: 5 mph from Southwest

Location: Roberts Field

Current Time: Apr 26, 2015 at 8:06:41 PM

Latest Report: Apr 26, 2015 at 7:30 PM


Visibility: N/A

Pressure: 29.86 "Hg

Humidity: 89%

Dew point: 77 °F

Location of NzérékoréLocation

Historic Weather in Nzérékoré — Graph

°F

Nzérékoré temperature yesterday

Maximum temperature yesterday: 90 °F (at 1:30 PM)
Minimum temperature yesterday: 77 °F (at 5:30 AM)
Average temperature yesterday: 83 °F

Past Weeks' High & Low Weather Summary

 TemperatureHumidityPressure
High93 °F (Apr 21, 1:30 PM)100% (Apr 18, 7:00 AM)30.01 "Hg (Apr 18, 7:00 AM)
Low73 °F (Apr 13, 12:30 AM)55% (Apr 17, 5:00 PM)29.77 "Hg (Apr 20, 4:30 PM)
Average83 °F83%29.88 "Hg
* Reported Apr 11 7:30 PM — Apr 26 7:00 PM, Nzérékoré, Weather by CustomWeather, © 2015

Note: Actual official high and low records may vary slightly from our data, if they occured in-between our weather recording intervals... More about our weather records

Advertising

Nzérékoré weather history for previous 24 hours

 ConditionsComfort  
Time TempWeatherWind HumidityBarometerVisibility
7:00 PM
Sun, Apr 26
82 °FScattered clouds.5 mph84%29.86 "HgN/A
6:30 PM84 °FScattered clouds.3 mph79%29.86 "HgN/A
6:00 PM84 °FPassing clouds.6 mph79%29.86 "HgN/A
5:30 PM86 °FPassing clouds.9 mph75%29.86 "HgN/A
5:00 PM86 °FScattered clouds.7 mph75%29.83 "HgN/A
4:30 PM86 °FScattered clouds.10 mph75%29.83 "HgN/A
4:00 PM88 °FScattered clouds.13 mph66%29.86 "HgN/A
3:30 PM88 °FPassing clouds.12 mph66%29.86 "HgN/A
3:00 PM88 °FScattered clouds.9 mph66%29.86 "HgN/A
2:30 PM88 °FScattered clouds.8 mph66%29.89 "HgN/A
2:00 PM88 °FPartly sunny.8 mph66%29.89 "HgN/A
1:30 PM86 °FPartly sunny.8 mph75%29.92 "HgN/A
1:00 PM86 °FPartly sunny.7 mph75%29.92 "HgN/A
12:30 PM84 °FPartly sunny.3 mph79%29.92 "HgN/A
12:00 PM82 °FPartly sunny.5 mph84%29.92 "HgN/A
11:30 AM81 °FOvercast.7 mph89%29.95 "HgN/A
11:00 AM81 °FThunderstorms. Overcast.5 mph89%29.95 "HgN/A
10:30 AM82 °FThunderstorms. Partly sunny.No wind84%29.95 "HgN/A
10:00 AM82 °FThunderstorms. Partly sunny.3 mph84%29.95 "HgN/A
9:30 AM84 °FThunderstorms. Partly sunny.3 mph79%29.95 "HgN/A
9:00 AM84 °FPartly sunny.5 mph84%29.95 "HgN/A
8:30 AM82 °FPartly sunny.3 mph84%29.92 "HgN/A
8:00 AM81 °FScattered clouds.5 mph89%29.92 "HgN/A
7:30 AM81 °FPartly sunny.No wind94%29.89 "HgN/A
6:00 AM79 °FPassing clouds.No wind94%29.86 "HgN/A
5:30 AM79 °FPassing clouds.No wind94%29.89 "HgN/A
4:30 AM79 °FPassing clouds.No wind94%29.86 "HgN/A
3:30 AM79 °FPassing clouds.No wind94%29.86 "HgN/A
3:00 AM79 °FPassing clouds.No wind94%29.89 "HgN/A
2:00 AM79 °FPassing clouds.No wind94%29.89 "HgN/A
1:30 AM79 °FPassing clouds.No wind94%29.89 "HgN/A
1:00 AM79 °FPassing clouds.No wind94%29.89 "HgN/A
12:30 AM79 °FPassing clouds.No wind94%29.92 "HgN/A
12:00 AM81 °FPassing clouds.3 mph94%29.95 "HgN/A
11:30 PM
Sat, Apr 25
81 °FPassing clouds.5 mph94%29.92 "HgN/A
11:00 PM81 °FPassing clouds.No wind94%29.92 "HgN/A
10:30 PM81 °FPassing clouds.3 mph94%29.95 "HgN/A
10:00 PM81 °FPassing clouds.3 mph94%29.92 "HgN/A
9:00 PM81 °FPassing clouds.No wind94%29.92 "HgN/A
8:30 PM81 °FPassing clouds.3 mph94%29.89 "HgN/A
8:00 PM81 °FPassing clouds.6 mph94%29.89 "HgN/A
Weather by CustomWeather, © 2015

See weather overviewHow to use our weather pages